Date String (YYYY-MM-DD hh:mm:ss) UTC,Instrument flags,absolute air pressure of the measurement (hPa),sample flow rate (lpm),inlet stack bypass flow (lpm),air temperature of the measurement (°C),ambient temperature measured by the external sensor (°C),aerosol sample conditioner tube jacket temperature (°C),OPC LED temperature (°C),internal box temperature (°C),relative humidity of the measurement (%),span deviation,mass concentration of particles derived from Lorenz-Mie calculation of OPC scattering (μg/m³),mass concentration of particles derived from Lorenz-Mie calculation of OPC scattering (μg/m³),mass concentration of particles derived from Lorenz-Mie calculation of OPC scattering (μg/m³)
DateTimeUTC,F1_M11,P_M11,Q1_M11,Q2_M11,T1_M11,T2_M11,T3_M11,T4_M11,T5_M11,U1_M11,ZSPAN_M11,X0_M11,X2_M11,X1_M11
2023-07-10 17:00:00,SystemResetWarning,0831.2,5.00,000.00,029.2,025.8,000.0,037.4,030.2,29.4,0000.0,0010.54,0005.71,0005.16
2023-07-10 17:01:00,SystemResetWarning,0831.2,5.00,000.00,029.2,026.2,000.0,037.5,030.3,30.7,0000.0,0011.82,0005.90,0005.33
2023-07-10 17:02:00,SystemResetWarning,0831.2,5.00,000.00,029.2,026.6,000.0,037.5,030.4,32.9,0000.0,0012.41,0006.00,0005.43
2023-07-10 17:03:00,SystemResetWarning,0831.1,4.99,000.00,029.2,026.9,000.0,037.5,030.4,34.5,0000.0,0012.91,0006.01,0005.39
2023-07-10 17:04:00,SystemResetWarning,0831.1,5.00,000.00,029.3,027.2,000.0,037.5,030.5,34.2,0000.0,0012.59,0005.99,0005.36
2023-07-10 17:05:00,SystemResetWarning,0831.1,5.01,000.00,029.3,027.4,000.0,037.6,030.6,34.7,0000.0,0012.63,0005.97,0005.32
2023-07-10 17:06:00,SystemResetWarning,0831.1,5.00,000.00,029.4,027.6,000.0,037.6,030.7,32.3,0000.0,0012.76,0005.95,0005.26
2023-07-10 17:07:00,SystemResetWarning,0831.1,4.98,000.00,029.4,027.5,000.0,037.6,030.7,29.6,0000.0,0012.91,0005.92,0005.22
2023-07-10 17:08:00,SystemResetWarning,0831.1,5.00,000.00,029.4,026.1,000.0,037.5,030.6,31.1,0000.0,0013.33,0005.91,0005.20
2023-07-10 17:09:00,SystemResetWarning,0831.1,5.01,000.00,029.3,025.0,000.0,037.4,030.3,32.8,0000.0,0013.56,0005.92,0005.20
2023-07-10 17:10:00,SystemResetWarning,0831.0,4.99,000.00,029.3,024.9,000.0,037.4,030.2,35.9,0000.0,0013.67,0005.93,0005.20
2023-07-10 17:11:00,SystemResetWarning,0831.0,5.04,000.00,029.3,025.2,000.0,037.4,030.2,35.1,0000.0,0013.58,0005.93,0005.23
2023-07-10 17:12:00,SystemResetWarning,0831.1,4.97,000.00,029.5,025.6,000.0,037.4,030.3,34.5,0000.0,0012.71,0005.98,0005.28
2023-07-10 17:13:00,SystemResetWarning,0831.1,5.02,000.00,029.7,026.1,000.0,037.5,030.5,32.1,0000.0,0012.62,0006.02,0005.28
2023-07-10 17:14:00,SystemResetWarning,0831.1,4.99,000.00,029.9,026.5,000.0,037.5,030.6,34.0,0000.0,0012.09,0006.00,0005.27
2023-07-10 17:15:00,SystemResetWarning,0831.1,5.00,000.00,030.0,026.8,000.0,037.6,030.6,33.6,0000.0,0011.89,0005.98,0005.26
2023-07-10 17:16:00,SystemResetWarning,0831.0,5.01,000.00,030.0,027.1,000.0,037.7,030.7,33.3,0000.0,0012.38,0005.96,0005.27
2023-07-10 17:17:00,SystemResetWarning,0831.0,5.01,000.00,030.1,027.4,000.0,037.8,030.7,31.1,0000.0,0013.71,0006.03,0005.30
2023-07-10 17:18:00,SystemResetWarning,0831.0,5.00,000.00,030.1,027.6,000.0,037.9,030.8,30.4,0000.0,0013.91,0006.10,0005.35
2023-07-10 17:19:00,SystemResetWarning,0831.0,4.98,000.00,030.2,027.2,000.0,037.9,030.9,29.5,0000.0,0013.81,0006.17,0005.37
2023-07-10 17:20:00,SystemResetWarning,0830.9,5.01,000.00,030.2,025.8,000.0,037.8,030.7,28.9,0000.0,0013.69,0006.21,0005.40
2023-07-10 17:21:00,SystemResetWarning,0830.9,5.00,000.00,030.1,025.1,000.0,037.7,030.5,25.9,0000.0,0013.63,0006.23,0005.43
2023-07-10 17:22:00,SystemResetWarning,0830.9,5.01,000.00,030.0,025.2,000.0,037.8,030.4,25.9,0000.0,0013.73,0006.27,0005.44
2023-07-10 17:23:00,SystemResetWarning,0830.9,5.00,000.00,029.9,025.5,000.0,037.9,030.3,27.2,0000.0,0013.69,0006.26,0005.45
2023-07-10 17:24:00,SystemResetWarning,0830.9,5.00,000.00,029.8,025.9,000.0,037.9,030.4,22.6,0000.0,0013.81,0006.25,0005.46
2023-07-10 17:25:00,SystemResetWarning,0830.9,5.00,000.00,029.8,026.3,000.0,037.9,030.5,21.9,0000.0,0013.80,0006.24,0005.48
2023-07-10 17:26:00,SystemResetWarning,0830.9,5.00,000.00,029.8,026.7,000.0,038.0,030.6,22.5,0000.0,0013.56,0006.20,0005.48
2023-07-10 17:27:00,SystemResetWarning,0830.9,5.00,000.00,029.8,027.0,000.0,038.0,030.7,25.7,0000.0,0012.94,0006.18,0005.43
2023-07-10 17:28:00,SystemResetWarning,0830.9,5.00,000.00,029.8,027.3,000.0,038.0,030.7,23.9,0000.0,0011.56,0006.06,0005.36
2023-07-10 17:29:00,SystemResetWarning,0830.9,5.01,000.00,029.9,027.5,000.0,038.0,030.8,23.4,0000.0,0010.73,0005.96,0005.26
2023-07-10 17:30:00,SystemResetWarning,0830.9,4.99,000.00,029.9,027.4,000.0,038.0,030.9,22.2,0000.0,0009.98,0005.78,0005.14
2023-07-10 17:31:00,SystemResetWarning,0830.9,4.99,000.00,029.9,026.1,000.0,037.9,030.7,20.4,0000.0,0009.58,0005.55,0004.96
2023-07-10 17:32:00,SystemResetWarning,0830.9,5.01,000.00,029.8,025.2,000.0,037.8,030.5,20.3,0000.0,0009.43,0005.38,0004.79
2023-07-10 17:33:00,SystemResetWarning,0830.9,5.01,000.00,029.7,025.2,000.0,037.8,030.4,20.7,0000.0,0009.44,0005.26,0004.67
2023-07-10 17:34:00,SystemResetWarning,0830.9,5.01,000.00,029.6,025.5,000.0,037.8,030.3,20.7,0000.0,0009.31,0005.13,0004.55
2023-07-10 17:35:00,SystemResetWarning,0830.9,4.99,000.00,029.6,025.9,000.0,037.8,030.4,21.5,0000.0,0009.00,0004.98,0004.42
2023-07-10 17:36:00,SystemResetWarning,0830.9,5.00,000.00,029.5,026.3,000.0,037.9,030.4,23.0,0000.0,0008.80,0004.84,0004.30
2023-07-10 17:37:00,SystemResetWarning,0830.9,5.01,000.00,029.5,026.7,000.0,037.9,030.5,22.3,0000.0,0008.81,0004.71,0004.17
2023-07-10 17:38:00,SystemResetWarning,0830.9,4.99,000.00,029.6,027.0,000.0,037.9,030.6,21.5,0000.0,0008.56,0004.54,0004.04
2023-07-10 17:39:00,SystemResetWarning,0830.9,5.00,000.00,029.6,027.3,000.0,037.9,030.7,22.2,0000.0,0008.57,0004.42,0003.94
2023-07-10 17:40:00,SystemResetWarning,0830.9,5.00,000.00,029.6,027.5,000.0,037.9,030.8,22.8,0000.0,0009.69,0004.29,0003.84
2023-07-10 17:41:00,SystemResetWarning,0830.8,4.99,000.00,029.6,027.1,000.0,037.8,030.8,22.1,0000.0,0009.91,0004.21,0003.78
2023-07-10 17:42:00,SystemResetWarning,0830.8,4.99,000.00,029.6,025.7,000.0,037.7,030.6,22.2,0000.0,0009.88,0004.19,0003.75
2023-07-10 17:43:00,SystemResetWarning,0830.8,5.02,000.00,029.5,025.2,000.0,037.6,030.4,21.7,0000.0,0009.88,0004.19,0003.74
2023-07-10 17:44:00,SystemResetWarning,0830.8,4.99,000.00,029.4,025.4,000.0,037.6,030.3,20.6,0000.0,0009.71,0004.14,0003.70
2023-07-10 17:45:00,SystemResetWarning,0830.7,4.98,000.00,029.3,025.7,000.0,037.7,030.3,21.3,0000.0,0009.57,0004.08,0003.64
2023-07-10 17:46:00,SystemResetWarning,0830.8,5.01,000.00,029.3,026.1,000.0,037.7,030.4,20.2,0000.0,0009.21,0004.03,0003.61
2023-07-10 17:47:00,SystemResetWarning,0830.8,5.01,000.00,029.3,026.5,000.0,037.7,030.4,20.0,0000.0,0009.52,0004.00,0003.58
2023-07-10 17:48:00,SystemResetWarning,0830.8,4.98,000.00,029.3,026.9,000.0,037.7,030.5,20.1,0000.0,0009.49,0004.00,0003.56
2023-07-10 17:49:00,SystemResetWarning,0830.8,5.00,000.00,029.3,027.2,000.0,037.7,030.6,19.1,0000.0,0009.57,0004.01,0003.57
2023-07-10 17:50:00,SystemResetWarning,0830.8,5.01,000.00,029.4,027.4,000.0,037.7,030.7,18.8,0000.0,0009.58,0004.02,0003.56
2023-07-10 17:51:00,SystemResetWarning,0830.8,5.01,000.00,029.4,027.2,000.0,037.7,030.7,18.9,0000.0,0008.46,0003.99,0003.55
2023-07-10 17:52:00,SystemResetWarning,0830.7,4.99,000.00,029.4,025.7,000.0,037.5,030.5,18.2,0000.0,0007.60,0003.96,0003.54
2023-07-10 17:53:00,SystemResetWarning,0830.7,5.01,000.00,029.3,025.0,000.0,037.4,030.4,18.0,0000.0,0008.23,0003.92,0003.52
2023-07-10 17:54:00,SystemResetWarning,0830.7,5.01,000.00,029.2,025.2,000.0,037.4,030.2,19.5,0000.0,0008.47,0003.89,0003.50
2023-07-10 17:55:00,SystemResetWarning,0830.7,5.00,000.00,029.1,025.5,000.0,037.5,030.2,20.7,0000.0,0008.81,0003.86,0003.49
2023-07-10 17:56:00,SystemResetWarning,0830.7,4.99,000.00,029.1,026.0,000.0,037.5,030.3,21.3,0000.0,0009.33,0003.84,0003.47
2023-07-10 17:57:00,SystemResetWarning,0830.7,5.00,000.00,029.1,026.4,000.0,037.5,030.3,20.0,0000.0,0009.52,0003.85,0003.46
2023-07-10 17:58:00,SystemResetWarning,0830.7,5.00,000.00,029.1,026.7,000.0,037.5,030.4,19.1,0000.0,0009.20,0003.87,0003.45
2023-07-10 17:59:00,SystemResetWarning,0830.7,5.00,000.00,029.1,027.1,000.0,037.5,030.5,20.0,0000.0,0008.88,0003.84,0003.43
